Regional Weather Roundup
Issued by NWS Albany, NY

Home | Current Version | Previous Version | Text Only | Print | Product List | Glossary On
Versions: 1 2 3 4 5 6 7 8 9 10 11 12 13 14 15 16 17 18 19 20 21 22 23 24 25 26 27
000
ASUS41 KALY 272210
RWRALY

NEW YORK STATE HOURLY WEATHER ROUNDUP
NATIONAL WEATHER SERVICE ALBANY NY
600 PM EDT FRI MAY 27 2016

NOTE: "FAIR" INDICATES FEW OR NO CLOUDS BELOW 12,000 FEET WITH NO
SIGNIFICANT WEATHER AND/OR NO OBSTRUCTIONS TO VISIBILITY.

NYZ032-033-038>043-046>054-057>066-NYZ062>081-082-084-272300-
EAST


CITY           SKY/WX    TMP DP  RH WIND       PRES   REMARKS
ALBANY         PTSUNNY   85  66  53 S16G25    29.96F
GLENS FALLS    SUNNY     86  63  45 SW15      29.94F
POUGHKEEPSIE   PTSUNNY   78  70  76 SE6       30.00S
NEWBURGH       MOSUNNY   77  72  83 SE12      30.03S
MONTGOMERY     SUNNY     81  72  74 E7        30.01S
WHITE PLAINS   MOSUNNY   78  63  59 S9        30.03S
ISLIP          PTSUNNY   71  61  70 S12       30.05S
NEW YORK CITY  PTSUNNY   80  68  66 S16       30.00F
CENTRAL PARK   SUNNY     81  62  52 VRB3      30.03F
$$

NYZ005>009-017-018-044>046-055-056-272300-
CENTRAL


CITY           SKY/WX    TMP DP  RH WIND       PRES   REMARKS
FULTON         SUNNY     83  70  64 CALM      29.97F
SYRACUSE       PTSUNNY   80  67  64 S5        29.96F
ROME           CLOUDY    82  68  62 NW10      29.97F
ELMIRA         CLOUDY    83  67  58 E6        29.98S
BINGHAMTON     CLOUDY    72  67  84 CALM      30.04S
MONTICELLO     SUNNY     82  66  57 SE9       30.05F
$$

NYZ026>034-041>043-087-272300-
NORTH


CITY           SKY/WX    TMP DP  RH WIND       PRES   REMARKS
WATERTOWN      SUNNY     77  66  68 W8        29.96F HAZE
FORT DRUM      NOT AVBL
MASSENA        SUNNY     86  64  47 SW17G24   29.90S
SARANAC LAKE   MOSUNNY   84  57  39 W10G17    29.97S
PLATTSBURGH    MOSUNNY   92  58  31 VRB6      29.87S HX  91
$$

NYZ001>004-010>016-019>021-085-272300-
WEST


CITY           SKY/WX    TMP DP  RH WIND       PRES   REMARKS
BUFFALO        MOSUNNY   78  63  59 SW15      29.99F
DUNKIRK        MOSUNNY   76  63  64 SW7       30.00F
JAMESTOWN      MOSUNNY   79  63  57 NW7       30.04F
WELLSVILLE     PTSUNNY   80  58  46 W6        30.06F
ROCHESTER      PTSUNNY   87  60  40 W10       29.96F
PENN YAN       MOSUNNY   82  67  60 VRB5      29.99F
$$

             KEY
       WCI = WIND CHILL INDEX
       VSB = VISIBILITY
       HX  = HEAT INDEX
$$




USA.gov is the U.S. government's official web portal to all federal, state and local government web resources and services.